Regional Weather Roundup
Issued by NWS

Home | Current Version | Previous Version | Graphics & Text | Print | Product List | Glossary On
Versions: 1 2 3 4 5 6 7 8 9 10 11 12 13 14 15 16 17 18 19 20 21 22 23 24 25 26 27 28 29 30 31 32 33 34 35 36 37 38 39 40 41 42 43 44 45 46 47 48 49 50
000
ASUS43 KLSX 061410
RWRMO

WEATHER SUMMARY FOR MISSOURI
NATIONAL WEATHER SERVICE SPRINGFIELD MO
800 AM CST SAT FEB 06 2016

NOTE: "FAIR" INDICATES FEW OR NO CLOUDS BELOW 12,000 FEET WITH NO
       SIGNIFICANT WEATHER AND/OR OBSTRUCTIONS TO VISIBILITY.
       CURRENT SKY AND/OR WEATHER CONDITIONS ARE NOT AVAILABLE FOR
       CHILLICOTHE AND FARMINGTON.

MOZ001>031-035>038-043-044-053-054-061500-
...NORTHERN AND WESTERN MISSOURI...

CITY           SKY/WX    TMP DP  RH WIND       PRES   REMARKS
KANSAS CTY INT CLEAR     27  24  89 NW6       30.29R WCI  20
KANSAS C DTWN  CLEAR     29  25  85 CALM      30.31R
LEE`S SUMMIT   CLEAR     28  23  81 NW6       30.30R WCI  22
ST JOSEPH      CLEAR     23  21  92 CALM      30.30S FOG
CHILLICOTHE      N/A     26  23  88 CALM      30.30R
KIRKSVILLE     CLEAR     26  19  74 W5        30.27R WCI  20

$$
MOZ066>068-077>081-088>096-101>105-061500-
...SOUTHWEST MISSOURI...

CITY           SKY/WX    TMP DP  RH WIND       PRES   REMARKS
SPRINGFIELD    CLEAR     29  19  66 S5        30.30R WCI  24
JOPLIN         CLEAR     34  20  56 S3        30.32R

$$
MOZ032>034-039>042-045>050-055>058-069>072-061500-
...CENTRAL MISSOURI...

CITY           SKY/WX    TMP DP  RH WIND       PRES   REMARKS
COLUMBIA       CLEAR     31  19  61 CALM      30.28R
JEFFERSON CITY CLEAR     26  21  81 CALM      30.31R
ROLLA          CLEAR     34  19  54 S10       30.27R WCI  26
SEDALIA        CLEAR     35  23  61 SW8       30.30R WCI  29
WHITEMAN AFB   CLEAR     30  24  77 SW3       30.28R
WARRENSBURG    CLEAR     30  25  80 SW3       30.30R
OSAGE BEACH    CLEAR     28  18  64 SE6       30.30R WCI  22

$$
MOZ051-052-059>065-061500-
...EAST CENTRAL MISSOURI...

CITY           SKY/WX    TMP DP  RH WIND       PRES   REMARKS
ST LOUIS INTL  PTCLDY    31  23  72 SE3       30.32R
SPIRIT OF STL  CLEAR     26  23  88 CALM      30.31R
ST CHARLES     CLEAR     29  24  82 E6        30.32R WCI  23

$$
MOZ072>076-082>087-097>100-106>115-061500-
...SOUTH CENTRAL AND SOUTHEAST MISSOURI...

CITY           SKY/WX    TMP DP  RH WIND       PRES   REMARKS
CAPE GIRARDEAU MOSUNNY   26  24  92 CALM      30.36R
FARMINGTON     PTCLDY    27  22  81 CALM      30.32R
POPLAR BLUFF   SUNNY     29  25  85 CALM      30.36R
WEST PLAINS    CLOUDY    36  17  46 SW6       30.33R

$$



USA.gov is the U.S. government's official web portal to all federal, state and local government web resources and services.